• In Lithuania
  • List of Countries
  • For 7 days
  • Water Temperature
  • Satellite Maps
  • Weather Map
  • Weather Widgets
  • user-avatar
    Login

    Hourly Weather Hobart

    Today, 18 December, Monday

    Time Temperature Precipitation Wind Pressure Humidity
    00:00 +9°C° 0 mm 3 mps 749 mmHg 93%
    01:00 +9°C° 0 mm 3 mps 749 mmHg 95%
    02:00 +9°C° 0 mm 3 mps 748 mmHg 95%
    03:00 +9°C° 0 mm 3 mps 748 mmHg 95%
    04:00 +9°C° 0 mm 2 mps 747 mmHg 97%
    05:00 +12°C° 0 mm 2 mps 747 mmHg 86%
    06:00 +15°C° 0 mm 1 mps 747 mmHg 75%
    07:00 +19°C° 0 mm 1 mps 747 mmHg 64%
    08:00 +22°C° 0 mm 1 mps 747 mmHg 53%
    09:00 +25°C° 0 mm 1 mps 747 mmHg 43%
    10:00 +27°C° 0 mm 1 mps 746 mmHg 34%
    11:00 +28°C° 0 mm 2 mps 746 mmHg 31%
    12:00 +29°C° 0 mm 2 mps 745 mmHg 29%
    13:00 +30°C° 0 mm 3 mps 745 mmHg 27%
    14:00 +29°C° 0 mm 3 mps 745 mmHg 31%
    15:00 +28°C° 0 mm 3 mps 744 mmHg 35%
    16:00 +27°C° 0 mm 3 mps 744 mmHg 38%
    17:00 +25°C° 0 mm 3 mps 744 mmHg 47%
    18:00 +23°C° 0 mm 2 mps 744 mmHg 57%
    19:00 +19°C° 0 mm 2 mps 745 mmHg 67%
    20:00 +18°C° 0 mm 2 mps 744 mmHg 75%
    21:00 +16°C° 0 mm 2 mps 744 mmHg 83%
    22:00 +14°C° 0 mm 2 mps 744 mmHg 92%
    23:00 +14°C° 0 mm 2 mps 744 mmHg 93%

    Tomorrow, 19 December, Tuesday

    Time Temperature Precipitation Wind Pressure Humidity
    00:00 +14°C° 0 mm 2 mps 743 mmHg 95%
    01:00 +14°C° 0 mm 2 mps 743 mmHg 96%
    02:00 +14°C° 0 mm 3 mps 742 mmHg 97%
    03:00 +14°C° 0 mm 3 mps 741 mmHg 97%
    04:00 +16°C° 0 mm 3 mps 740 mmHg 98%
    05:00 +15°C° 0 mm 4 mps 740 mmHg 93%
    06:00 +17°C° 0 mm 4 mps 739 mmHg 88%
    07:00 +18°C° 0 mm 4 mps 739 mmHg 83%
    08:00 +20°C° 0 mm 5 mps 738 mmHg 78%
    09:00 +21°C° 0 mm 5 mps 738 mmHg 72%
    10:00 +22°C° 0 mm 5 mps 738 mmHg 66%
    11:00 +26°C° 0 mm 6 mps 736 mmHg 57%
    12:00 +28°C° 0 mm 7 mps 735 mmHg 47%
    13:00 +30°C° 0 mm 7 mps 734 mmHg 38%
    14:00 +32°C° 0 mm 7 mps 733 mmHg 38%
    15:00 +33°C° 0 mm 7 mps 733 mmHg 39%
    16:00 +34°C° 0 mm 7 mps 732 mmHg 39%
    17:00 +29°C° 0.2 mm 6 mps 732 mmHg 47%
    18:00 +26°C° 0.2 mm 6 mps 732 mmHg 55%
    19:00 +21°C° 0.2 mm 5 mps 733 mmHg 62%
    20:00 +20°C° 0 mm 5 mps 733 mmHg 59%
    21:00 +19°C° 0 mm 5 mps 733 mmHg 55%
    22:00 +17°C° 0 mm 4 mps 733 mmHg 51%
    23:00 +16°C° 0 mm 5 mps 733 mmHg 52%

    Day after tomorrow, 20 December, Wednesday

    Time Temperature Precipitation Wind Pressure Humidity
    00:00 +16°C° 0 mm 5 mps 732 mmHg 53%
    01:00 +17°C° 0 mm 6 mps 732 mmHg 53%
    02:00 +16°C° 0 mm 6 mps 732 mmHg 56%
    03:00 +16°C° 0 mm 6 mps 732 mmHg 59%
    04:00 +15°C° 0 mm 6 mps 732 mmHg 62%
    05:00 +16°C° 0 mm 6 mps 732 mmHg 64%
    06:00 +16°C° 0 mm 7 mps 732 mmHg 66%
    07:00 +16°C° 0 mm 7 mps 733 mmHg 67%
    08:00 +16°C° 0.1 mm 7 mps 733 mmHg 68%
    09:00 +16°C° 0.1 mm 7 mps 734 mmHg 68%
    10:00 +16°C° 0.1 mm 7 mps 734 mmHg 69%
    11:00 +16°C° 0.1 mm 7 mps 735 mmHg 63%
    12:00 +15°C° 0.1 mm 8 mps 735 mmHg 58%
    13:00 +15°C° 0.1 mm 8 mps 736 mmHg 53%
    14:00 +15°C° 0 mm 8 mps 736 mmHg 53%
    15:00 +15°C° 0 mm 7 mps 737 mmHg 53%
    16:00 +14°C° 0 mm 7 mps 738 mmHg 53%
    17:00 +12°C° 0.2 mm 7 mps 739 mmHg 61%
    18:00 +11°C° 0.2 mm 6 mps 740 mmHg 69%
    19:00 +10°C° 0.2 mm 6 mps 741 mmHg 77%
    20:00 +9°C° 0 mm 5 mps 742 mmHg 80%
    21:00 +8°C° 0 mm 5 mps 743 mmHg 83%
    22:00 +7°C° 0 mm 5 mps 744 mmHg 86%
    23:00 +7°C° 0 mm 4 mps 744 mmHg 86%

    21 December, Thursday

    Time Temperature Precipitation Wind Pressure Humidity
    00:00 +7°C° 0 mm 4 mps 744 mmHg 86%
    01:00 +8°C° 0 mm 4 mps 745 mmHg 86%
    02:00 +8°C° 0 mm 4 mps 745 mmHg 85%
    03:00 +8°C° 0 mm 4 mps 745 mmHg 85%
    04:00 +8°C° 0 mm 4 mps 745 mmHg 84%
    05:00 +10°C° 0 mm 4 mps 746 mmHg 79%
    06:00 +12°C° 0 mm 4 mps 746 mmHg 74%
    07:00 +13°C° 0 mm 5 mps 746 mmHg 69%
    08:00 +14°C° 0 mm 5 mps 746 mmHg 64%
    09:00 +16°C° 0 mm 5 mps 746 mmHg 60%
    10:00 +17°C° 0 mm 5 mps 746 mmHg 56%
    11:00 +19°C° 0 mm 5 mps 746 mmHg 54%
    12:00 +19°C° 0 mm 5 mps 746 mmHg 52%
    13:00 +20°C° 0 mm 5 mps 746 mmHg 50%
    14:00 +20°C° 0 mm 5 mps 745 mmHg 53%
    15:00 +19°C° 0 mm 5 mps 745 mmHg 56%
    16:00 +17°C° 0 mm 6 mps 745 mmHg 59%
    17:00 +17°C° 0 mm 5 mps 745 mmHg 62%
    18:00 +16°C° 0 mm 5 mps 746 mmHg 65%
    19:00 +15°C° 0 mm 5 mps 746 mmHg 68%
    20:00 +14°C° 0 mm 4 mps 746 mmHg 73%
    21:00 +13°C° 0 mm 4 mps 746 mmHg 77%
    22:00 +13°C° 0 mm 3 mps 746 mmHg 82%
    23:00 +12°C° 0 mm 3 mps 746 mmHg 84%

    22 December, Friday

    Time Temperature Precipitation Wind Pressure Humidity
    00:00 +12°C° 0 mm 3 mps 746 mmHg 85%
    01:00 +11°C° 0 mm 3 mps 746 mmHg 87%
    02:00 +11°C° 0 mm 3 mps 746 mmHg 88%
    03:00 +11°C° 0 mm 3 mps 746 mmHg 89%
    04:00 +11°C° 0 mm 3 mps 746 mmHg 89%
    05:00 +12°C° 0 mm 3 mps 746 mmHg 83%
    06:00 +13°C° 0 mm 3 mps 746 mmHg 77%
    07:00 +16°C° 0 mm 3 mps 747 mmHg 70%
    08:00 +17°C° 0 mm 3 mps 747 mmHg 65%
    09:00 +18°C° 0 mm 3 mps 747 mmHg 59%
    10:00 +19°C° 0 mm 2 mps 747 mmHg 53%
    11:00 +20°C° 0 mm 2 mps 746 mmHg 52%
    12:00 +20°C° 0 mm 2 mps 746 mmHg 50%
    13:00 +21°C° 0 mm 2 mps 745 mmHg 49%
    14:00 +21°C° 0 mm 2 mps 745 mmHg 49%
    15:00 +21°C° 0 mm 3 mps 745 mmHg 48%
    16:00 +21°C° 0 mm 3 mps 744 mmHg 48%
    17:00 +20°C° 0 mm 3 mps 744 mmHg 53%
    18:00 +19°C° 0 mm 2 mps 744 mmHg 57%
    19:00 +18°C° 0 mm 2 mps 744 mmHg 62%
    20:00 +16°C° 0 mm 2 mps 744 mmHg 70%
    21:00 +14°C° 0 mm 2 mps 744 mmHg 78%
    22:00 +12°C° 0 mm 2 mps 744 mmHg 86%
    23:00 +11°C° 0 mm 3 mps 744 mmHg 87%

    23 December, Saturday

    Time Temperature Precipitation Wind Pressure Humidity
    00:00 +11°C° 0 mm 3 mps 743 mmHg 88%
    01:00 +11°C° 0 mm 3 mps 743 mmHg 89%
    02:00 +11°C° 0 mm 3 mps 743 mmHg 88%
    03:00 +11°C° 0 mm 4 mps 743 mmHg 87%
    04:00 +11°C° 0 mm 4 mps 743 mmHg 86%
    05:00 +12°C° 0 mm 4 mps 743 mmHg 82%
    06:00 +13°C° 0 mm 4 mps 743 mmHg 78%
    07:00 +14°C° 0 mm 5 mps 743 mmHg 74%
    08:00 +16°C° 0 mm 5 mps 743 mmHg 67%
    09:00 +17°C° 0 mm 5 mps 743 mmHg 60%
    10:00 +20°C° 0 mm 5 mps 743 mmHg 53%
    11:00 +20°C° 0.1 mm 5 mps 742 mmHg 53%
    12:00 +20°C° 0.1 mm 5 mps 742 mmHg 54%
    13:00 +21°C° 0.1 mm 5 mps 742 mmHg 54%
    14:00 +20°C° 0.2 mm 5 mps 742 mmHg 60%
    15:00 +19°C° 0.2 mm 5 mps 742 mmHg 66%
    16:00 +17°C° 0.2 mm 5 mps 742 mmHg 71%
    17:00 +16°C° 0.1 mm 5 mps 742 mmHg 74%
    18:00 +17°C° 0.1 mm 4 mps 742 mmHg 77%
    19:00 +15°C° 0.1 mm 4 mps 742 mmHg 80%
    20:00 +14°C° 0.1 mm 3 mps 743 mmHg 84%
    21:00 +13°C° 0.1 mm 3 mps 743 mmHg 88%
    22:00 +12°C° 0.1 mm 3 mps 743 mmHg 91%
    23:00 +13°C° 0 mm 2 mps 743 mmHg 93%
    Show more